SCP
0 0 0 0 0 0 0 0 0 0 0 0 0 0 0 0 0 0 0 0 0 0 0 0 0 1 1 0 0 1 1 1 1 1 1 1 0 0 0 0 0 0 0
0 0 0 0 -0 -0 0 0 0 0 0 0 0 0 0 0 0 0 0 0 0 0 0 0 0 0 1 0 1 1 1 1 1 1 1 1 0 0 0 0 0 0 0
0 0 0 0 -0 -0 -0 -0 0 0 0 0 0 0 0 0 0 0 0 0 0 0 0 0 0 0 0 1 1 1 1 2 1 1 1 1 0 0 0 0 0 0 0
0 0 0 0 0 -0 -0 -0 -0 -0 -0 -0 -0 0 0 0 0 0 0 0 0 0 0 0 0 0 0 0 1 1 1 1 2 1 1 1 0 0 0 0 0 0 0
0 0 0 0 0 -0 -0 -0 -0 -0 -0 -0 -0 -0 -0 0 0 0 0 0 0 0 0 0 0 0 0 0 1 1 1 1 2 2 1 1 0 0 0 0 0 0 0
0 0 0 0 0 0 -0 -0 -0 -0 -0 -0 -0 -0 -0 -0 0 0 0 0 0 0 0 0 0 0 0 0 0 1 1 1 2 1 1 1 1 0 0 0 0 0 0
0 0 0 0 0 0 0 0 0 -0 -0 -0 -0 -0 -0 0 -0 -0 0 0 0 0 0 0 0 0 0 0 0 0 1 1 1 2 1 1 1 0 0 0 0 0 0
0 0 0 0 0 0 0 0 0 -0 -0 -0 -0 0 -0 -0 -0 -0 -0 -0 -0 0 0 0 0 0 0 0 0 0 1 1 1 1 1 1 1 0 0 0 0 0 0
0 0 0 0 0 0 0 0 0 0 0 0 0 0 0 0 0 -0 -0 0 0 0 0 0 0 0 0 0 0 0 0 0 0 0 1 1 1 0 0 0 0 0 0
0 0 0 0 0 0 0 0 0 0 0 0 0 0 0 0 0 -0 -0 -0 0 0 0 0 0 0 0 0 0 0 0 0 0 0 0 1 1 1 0 0 0 0 0
0 0 0 0 0 0 0 0 0 0 0 0 0 0 0 0 0 0 0 -0 -0 0 0 0 0 0 0 0 0 0 0 0 0 0 0 0 1 1 0 0 0 0 0
0 0 0 0 0 0 0 0 0 0 0 0 0 0 0 0 0 0 0 0 0 0 0 0 0 0 0 0 0 0 0 0 0 0 0 0 0 0 0 0 0 0 0
0 0 0 0 0 0 0 0 0 0 0 0 0 0 0 0 0 0 0 0 0 0 0 0 0 -0 0 0 0 0 0 0 0 0 0 0 0 0 0 0 0 0 0
0 0 0 0 0 0 0 0 0 0 0 0 0 0 0 0 0 0 0 0 0 0 0 0 0 -0 -0 0 0 0 0 0 0 0 0 0 0 0 0 0 0 0 0
0 0 0 0 0 0 0 0 0 0 0 0 0 0 0 0 0 0 0 0 0 0 -0 -0 -0 -0 -0 -0 0 0 0 0 0 0 0 0 0 0 0 0 0 0 0
0 0 0 0 0 0 0 0 0 0 0 0 0 0 0 0 0 0 0 0 0 -0 -0 -0 -0 -0 -0 -0 -0 0 0 0 0 0 0 0 0 0 0 0 0 0 0
0 0 0 0 0 0 0 0 0 0 0 0 0 0 0 0 0 0 0 -0 -0 0 0 -0 -0 -0 -0 0 -0 0 0 0 0 0 0 0 0 0 0 0 0 0 0
0 0 0 0 0 0 0 0 0 0 0 0 0 0 0 0 0 0 -0 0 -0 0 0 -0 -0 -0 -0 -0 -0 0 0 0 0 0 0 0 0 0 0 0 0 0 0
0 0 0 0 0 0 0 0 0 0 0 0 0 0 0 0 0 -0 -0 -0 -0 0 0 0 -0 -0 -0 -0 -0 -0 0 0 0 0 0 0 0 0 0 0 0 0 0
0 0 0 0 0 0 0 0 0 0 0 0 0 0 0 -0 -0 -0 0 0 0 0 0 0 -0 -0 -0 -0 -0 -0 0 0 0 0 0 0 0 0 0 0 0 0 0
0 0 0 0 0 0 0 0 0 0 0 0 0 0 -0 -0 -0 -0 0 0 0 0 0 0 -0 -0 -0 -0 -0 -0 0 0 0 0 0 0 0 0 0 0 0 0 0
0 0 0 0 0 0 0 0 0 0 0 0 0 0 0 0 0 0 0 0 0 0 0 0 -0 -0 -0 -0 -0 0 0 0 0 0 0 0 0 0 0 0 0 0 0
0 0 0 0 0 0 0 0 0 0 0 0 0 0 0 0 0 0 0 0 0 0 0 0 -0 -0 -0 -0 -0 -0 0 0 0 0 0 0 0 0 0 0 0 0 0
0 0 0 0 0 0 0 0 0 0 0 0 0 0 0 0 0 0 0 0 0 0 0 0 -0 -0 -0 -0 -0 -0 -0 0 0 0 0 0 0 0 0 0 0 0 0
0 0 0 0 0 0 -0 -0 0 0 0 0 0 0 0 0 0 0 0 0 0 0 0 0 -0 -0 0 -0 -0 -0 -0 0 0 0 0 0 0 0 0 0 0 0 0
0 0 0 0 0 0 -0 0 0 0 0 0 0 -0 -0 -0 0 0 0 0 -0 -0 -0 -0 -0 -0 -0 -0 0 -0 0 0 0 0 0 0 0 0 0 0 0 0 0
Wind_Speed_500mb
44 47 51 54 55 54 53 49 52 57 60 60 58 60 66 71 82 83 85 85 87 86 83 79 75 71 78 82 88 88 82 82 79 80 83 79 74 70 65 60 62 54 49
46 49 53 56 57 58 58 59 61 60 61 66 69 67 66 68 71 85 90 93 94 95 93 90 86 82 79 84 87 93 90 89 87 86 87 86 81 76 72 67 66 59 56
46 52 56 59 62 63 63 64 65 68 69 66 69 75 77 74 75 74 85 102 99 101 102 101 97 92 87 87 88 95 98 93 91 86 89 90 89 84 79 76 69 66 61
48 51 55 60 62 64 67 69 70 74 78 82 86 81 78 81 81 83 80 86 103 107 107 105 107 103 96 91 96 96 103 103 100 99 96 100 98 92 86 83 75 70 64
51 54 57 61 64 67 70 73 74 77 82 85 90 94 95 93 87 85 91 88 90 106 111 112 112 111 106 98 99 103 105 110 110 107 105 105 106 100 94 90 77 76 69
49 55 60 62 65 69 72 73 77 78 82 86 91 98 99 101 101 101 98 93 96 96 111 112 109 112 114 108 102 108 108 114 121 113 112 111 108 105 106 99 89 84 77
49 57 63 64 65 70 72 75 78 81 84 84 91 100 107 109 100 90 94 99 94 98 99 116 113 113 117 119 110 110 116 117 124 123 117 119 122 117 117 106 101 91 83
52 60 65 66 67 72 72 73 75 84 88 82 72 72 62 93 74 43 49 65 74 76 93 102 121 119 119 121 119 114 119 122 126 134 131 130 129 130 131 117 111 99 91
54 60 61 65 67 71 74 75 75 76 84 86 74 53 35 38 76 89 69 63 67 67 67 76 90 114 121 126 119 118 119 129 133 137 159 152 141 135 136 126 120 108 97
54 61 65 67 69 72 74 76 79 82 84 92 76 67 63 74 48 80 65 62 61 91 78 76 80 93 112 120 129 123 124 129 136 139 129 164 147 144 136 134 129 114 102
60 64 68 72 73 75 76 77 80 84 88 92 88 76 66 69 83 82 100 82 78 92 107 104 93 91 80 112 120 125 123 127 130 133 122 109 160 144 147 146 137 118 107
69 68 71 74 73 74 78 82 84 88 90 96 90 93 86 72 78 66 80 85 85 90 93 109 109 104 87 88 103 117 122 125 124 114 127 119 105 158 168 154 143 124 109
73 75 76 74 74 76 78 82 88 94 97 97 102 104 95 91 83 79 84 104 90 88 77 76 84 99 100 83 87 122 121 118 119 112 107 108 108 173 161 163 147 129 112
76 76 77 78 80 80 82 83 90 97 101 104 105 98 84 92 84 92 82 89 93 82 81 95 95 92 102 86 69 68 118 119 117 120 105 96 96 110 176 167 155 135 107
77 81 80 81 84 85 87 89 92 98 102 105 104 98 90 97 88 91 110 94 79 89 79 70 78 85 83 80 89 77 102 116 115 117 119 113 103 116 155 139 151 112 109
76 80 82 83 85 88 89 93 99 102 101 106 92 83 85 87 72 78 71 89 103 94 103 79 74 97 95 85 98 74 81 116 111 112 107 111 107 140 163 162 119 107 121
78 81 83 84 87 90 92 98 101 102 102 96 86 82 89 76 87 89 89 96 89 86 97 83 75 88 94 88 98 103 63 113 108 112 110 116 130 164 139 112 123 118 123
80 81 83 85 86 89 95 100 104 103 96 90 83 77 84 76 80 78 82 75 89 101 86 88 76 79 78 87 84 90 70 91 103 98 112 126 154 158 159 146 139 133 131
78 78 82 85 86 89 97 98 99 100 93 84 82 77 78 75 84 84 84 82 80 94 80 76 79 82 73 89 84 95 98 63 109 102 113 146 167 165 167 157 143 137 134
76 79 81 85 85 89 93 95 89 83 82 80 78 74 73 73 77 75 80 79 75 85 73 62 69 72 61 65 67 70 68 75 112 123 141 153 162 145 136 141 144 136 131
74 77 83 85 85 88 92 83 75 81 84 85 82 79 76 82 78 75 75 70 71 74 62 68 72 81 73 50 54 73 102 67 112 133 137 147 144 140 134 129 129 135 133
73 75 79 83 85 86 83 67 69 78 80 81 82 83 83 82 82 76 76 78 77 82 82 51 66 68 81 84 80 59 74 68 106 106 123 130 132 129 131 129 130 127 128
72 75 78 80 83 82 75 66 67 71 74 76 76 77 77 76 82 84 75 72 73 78 90 70 70 78 72 75 82 86 96 94 126 135 148 126 132 136 148 144 136 130 128
69 74 76 77 80 79 72 67 69 72 76 77 74 74 75 83 91 89 83 79 75 63 91 79 75 75 74 74 74 85 86 91 113 148 148 128 132 125 130 138 134 135 131
67 71 75 76 79 86 73 69 71 75 70 72 70 70 67 84 70 68 73 81 75 87 84 74 92 95 90 85 85 86 107 93 106 127 131 129 112 112 117 127 138 140 136
65 72 77 75 83 86 75 69 68 79 79 79 78 82 79 74 69 75 72 76 79 87 88 91 98 102 98 98 92 84 84 61 127 109 127 115 124 116 93 116 136 140 131
Wind_Direction_500mb
340 339 336 334 333 334 332 329 323 318 313 308 302 294 283 273 268 272 272 268 259 254 254 253 251 247 247 246 242 234 232 230 230 226 221 221 221 221 222 217 212 212 210
336 336 334 331 330 330 330 330 329 324 319 314 308 303 296 289 275 264 265 271 270 261 254 252 251 248 246 245 246 237 232 231 228 227 222 221 221 221 222 219 214 214 211
332 333 330 327 326 326 327 326 324 322 318 315 311 307 302 294 287 280 266 259 266 269 261 255 251 248 247 245 244 240 232 231 229 227 225 221 222 222 221 218 217 215 213
329 328 325 322 321 321 322 323 323 321 320 318 315 309 302 298 292 286 279 267 257 259 266 260 254 249 246 246 242 239 235 233 232 227 226 223 223 222 222 217 216 214 212
324 324 322 319 318 320 321 322 322 320 319 317 313 310 307 302 295 288 282 275 266 256 256 263 259 251 246 241 243 239 237 233 231 229 225 223 220 219 221 217 217 214 215
321 321 317 318 319 319 319 319 318 317 316 315 311 304 303 300 297 294 288 279 272 262 253 254 257 256 248 241 239 240 237 233 229 228 227 223 221 224 222 217 216 212 215
320 316 314 314 314 314 315 316 316 316 315 317 313 311 305 302 298 295 291 290 278 269 260 255 253 255 254 245 238 237 237 235 230 225 226 227 222 225 218 218 213 211 216
316 310 310 311 313 312 314 314 314 313 313 316 312 307 310 303 308 305 295 289 287 276 267 257 253 250 252 250 243 235 235 234 231 228 227 223 224 223 217 216 211 210 213
313 309 309 310 312 313 313 312 311 310 308 306 303 286 293 282 304 291 283 274 273 269 269 264 259 250 250 251 248 240 234 234 232 231 228 221 219 218 215 214 210 209 210
313 312 312 312 313 310 309 309 308 307 306 304 298 290 281 280 289 297 285 279 274 261 260 248 244 249 248 253 247 244 236 233 234 233 239 208 209 214 218 211 210 207 208
314 313 313 312 311 309 308 306 305 302 301 300 297 293 282 277 273 267 281 283 276 272 261 261 250 238 241 246 246 242 238 235 234 236 237 236 213 212 212 213 207 206 208
315 314 312 311 309 307 306 304 301 299 298 297 292 291 285 272 273 267 268 271 269 266 267 268 264 253 247 240 239 239 236 239 236 232 233 234 233 213 205 208 203 202 206
315 317 316 312 310 309 305 304 302 300 299 296 294 292 291 281 279 270 264 268 272 271 262 258 262 262 255 241 250 239 237 236 237 231 228 230 225 202 205 210 206 201 201
317 318 316 315 313 310 307 303 301 300 300 298 295 288 276 277 264 257 261 266 265 275 256 261 266 269 260 252 240 241 237 232 237 232 228 230 232 212 198 200 195 195 195
318 318 318 315 313 310 308 306 303 301 300 298 292 287 281 286 279 272 257 249 264 268 260 255 266 266 267 266 244 253 237 232 232 232 226 226 224 210 194 200 194 185 195
317 316 317 314 312 310 309 307 305 303 300 297 287 280 278 281 270 262 265 262 256 263 269 254 256 265 269 257 242 252 240 234 234 232 226 225 218 200 191 189 180 186 188
315 315 312 311 311 311 311 307 304 303 299 294 287 280 278 276 271 278 267 250 255 255 258 261 262 265 269 270 246 247 242 230 234 231 223 213 198 188 195 189 180 183 188
313 312 312 311 311 311 311 308 307 304 297 293 286 281 277 276 273 274 265 265 264 253 271 259 255 264 267 271 264 258 260 231 229 224 215 214 204 207 193 189 182 184 193
313 314 312 312 313 313 311 310 307 302 298 290 286 281 279 276 276 274 275 258 259 253 269 247 259 266 267 264 265 259 262 261 218 226 214 209 199 193 193 179 182 185 189
317 317 315 314 316 315 313 312 306 303 303 296 291 285 281 277 279 278 272 261 254 262 276 237 255 265 272 260 271 267 262 228 199 204 193 189 177 175 172 176 179 183 189
321 319 318 317 320 319 316 314 305 300 295 290 286 284 282 283 278 273 272 268 260 259 268 252 255 261 267 269 264 262 249 240 176 172 167 171 176 176 177 176 183 187 188
323 321 320 320 321 320 322 310 304 299 294 289 288 287 286 285 281 271 266 262 257 258 256 267 249 257 262 265 264 263 253 251 171 181 167 170 172 173 177 181 187 188 189
323 321 321 324 324 329 328 314 308 300 298 296 292 289 286 283 279 277 274 262 253 254 246 246 256 260 262 264 259 264 255 268 182 177 175 171 174 173 180 185 187 189 190
323 323 324 328 330 333 332 318 315 307 303 296 291 287 290 291 291 276 273 265 254 249 239 240 241 254 261 265 263 269 255 257 171 172 171 162 173 176 179 184 188 191 193
324 324 329 334 335 339 334 322 319 314 312 308 304 293 285 285 285 276 266 264 261 239 238 246 249 252 258 268 264 271 254 200 163 168 168 163 170 172 179 189 189 193 198
327 331 332 341 345 341 332 323 326 316 309 310 304 294 288 284 285 280 262 258 258 248 242 244 244 251 257 264 262 266 265 245 163 163 170 165 167 171 182 189 194 200 200
Wind_Speed_850mb
44 47 51 54 55 54 53 49 52 57 60 60 58 60 66 71 82 83 85 85 87 86 83 79 75 71 78 82 88 88 82 82 79 80 83 79 74 70 65 60 62 54 49
46 49 53 56 57 58 58 59 61 60 61 66 69 67 66 68 71 85 90 93 94 95 93 90 86 82 79 84 87 93 90 89 87 86 87 86 81 76 72 67 66 59 56
46 52 56 59 62 63 63 64 65 68 69 66 69 75 77 74 75 74 85 102 99 101 102 101 97 92 87 87 88 95 98 93 91 86 89 90 89 84 79 76 69 66 61
48 51 55 60 62 64 67 69 70 74 78 82 86 81 78 81 81 83 80 86 103 107 107 105 107 103 96 91 96 96 103 103 100 99 96 100 98 92 86 83 75 70 64
51 54 57 61 64 67 70 73 74 77 82 85 90 94 95 93 87 85 91 88 90 106 111 112 112 111 106 98 99 103 105 110 110 107 105 105 106 100 94 90 77 76 69
49 55 60 62 65 69 72 73 77 78 82 86 91 98 99 101 101 101 98 93 96 96 111 112 109 112 114 108 102 108 108 114 121 113 112 111 108 105 106 99 89 84 77
49 57 63 64 65 70 72 75 78 81 84 84 91 100 107 109 100 90 94 99 94 98 99 116 113 113 117 119 110 110 116 117 124 123 117 119 122 117 117 106 101 91 83
52 60 65 66 67 72 72 73 75 84 88 82 72 72 62 93 74 43 49 65 74 76 93 102 121 119 119 121 119 114 119 122 126 134 131 130 129 130 131 117 111 99 91
54 60 61 65 67 71 74 75 75 76 84 86 74 53 35 38 76 89 69 63 67 67 67 76 90 114 121 126 119 118 119 129 133 137 159 152 141 135 136 126 120 108 97
54 61 65 67 69 72 74 76 79 82 84 92 76 67 63 74 48 80 65 62 61 91 78 76 80 93 112 120 129 123 124 129 136 139 129 164 147 144 136 134 129 114 102
60 64 68 72 73 75 76 77 80 84 88 92 88 76 66 69 83 82 100 82 78 92 107 104 93 91 80 112 120 125 123 127 130 133 122 109 160 144 147 146 137 118 107
69 68 71 74 73 74 78 82 84 88 90 96 90 93 86 72 78 66 80 85 85 90 93 109 109 104 87 88 103 117 122 125 124 114 127 119 105 158 168 154 143 124 109
73 75 76 74 74 76 78 82 88 94 97 97 102 104 95 91 83 79 84 104 90 88 77 76 84 99 100 83 87 122 121 118 119 112 107 108 108 173 161 163 147 129 112
76 76 77 78 80 80 82 83 90 97 101 104 105 98 84 92 84 92 82 89 93 82 81 95 95 92 102 86 69 68 118 119 117 120 105 96 96 110 176 167 155 135 107
77 81 80 81 84 85 87 89 92 98 102 105 104 98 90 97 88 91 110 94 79 89 79 70 78 85 83 80 89 77 102 116 115 117 119 113 103 116 155 139 151 112 109
76 80 82 83 85 88 89 93 99 102 101 106 92 83 85 87 72 78 71 89 103 94 103 79 74 97 95 85 98 74 81 116 111 112 107 111 107 140 163 162 119 107 121
78 81 83 84 87 90 92 98 101 102 102 96 86 82 89 76 87 89 89 96 89 86 97 83 75 88 94 88 98 103 63 113 108 112 110 116 130 164 139 112 123 118 123
80 81 83 85 86 89 95 100 104 103 96 90 83 77 84 76 80 78 82 75 89 101 86 88 76 79 78 87 84 90 70 91 103 98 112 126 154 158 159 146 139 133 131
78 78 82 85 86 89 97 98 99 100 93 84 82 77 78 75 84 84 84 82 80 94 80 76 79 82 73 89 84 95 98 63 109 102 113 146 167 165 167 157 143 137 134
76 79 81 85 85 89 93 95 89 83 82 80 78 74 73 73 77 75 80 79 75 85 73 62 69 72 61 65 67 70 68 75 112 123 141 153 162 145 136 141 144 136 131
74 77 83 85 85 88 92 83 75 81 84 85 82 79 76 82 78 75 75 70 71 74 62 68 72 81 73 50 54 73 102 67 112 133 137 147 144 140 134 129 129 135 133
73 75 79 83 85 86 83 67 69 78 80 81 82 83 83 82 82 76 76 78 77 82 82 51 66 68 81 84 80 59 74 68 106 106 123 130 132 129 131 129 130 127 128
72 75 78 80 83 82 75 66 67 71 74 76 76 77 77 76 82 84 75 72 73 78 90 70 70 78 72 75 82 86 96 94 126 135 148 126 132 136 148 144 136 130 128
69 74 76 77 80 79 72 67 69 72 76 77 74 74 75 83 91 89 83 79 75 63 91 79 75 75 74 74 74 85 86 91 113 148 148 128 132 125 130 138 134 135 131
67 71 75 76 79 86 73 69 71 75 70 72 70 70 67 84 70 68 73 81 75 87 84 74 92 95 90 85 85 86 107 93 106 127 131 129 112 112 117 127 138 140 136
65 72 77 75 83 86 75 69 68 79 79 79 78 82 79 74 69 75 72 76 79 87 88 91 98 102 98 98 92 84 84 61 127 109 127 115 124 116 93 116 136 140 131
Wind_Direction_850mb
340 339 336 334 333 334 332 329 323 318 313 308 302 294 283 273 268 272 272 268 259 254 254 253 251 247 247 246 242 234 232 230 230 226 221 221 221 221 222 217 212 212 210
336 336 334 331 330 330 330 330 329 324 319 314 308 303 296 289 275 264 265 271 270 261 254 252 251 248 246 245 246 237 232 231 228 227 222 221 221 221 222 219 214 214 211
332 333 330 327 326 326 327 326 324 322 318 315 311 307 302 294 287 280 266 259 266 269 261 255 251 248 247 245 244 240 232 231 229 227 225 221 222 222 221 218 217 215 213
329 328 325 322 321 321 322 323 323 321 320 318 315 309 302 298 292 286 279 267 257 259 266 260 254 249 246 246 242 239 235 233 232 227 226 223 223 222 222 217 216 214 212
324 324 322 319 318 320 321 322 322 320 319 317 313 310 307 302 295 288 282 275 266 256 256 263 259 251 246 241 243 239 237 233 231 229 225 223 220 219 221 217 217 214 215
321 321 317 318 319 319 319 319 318 317 316 315 311 304 303 300 297 294 288 279 272 262 253 254 257 256 248 241 239 240 237 233 229 228 227 223 221 224 222 217 216 212 215
320 316 314 314 314 314 315 316 316 316 315 317 313 311 305 302 298 295 291 290 278 269 260 255 253 255 254 245 238 237 237 235 230 225 226 227 222 225 218 218 213 211 216
316 310 310 311 313 312 314 314 314 313 313 316 312 307 310 303 308 305 295 289 287 276 267 257 253 250 252 250 243 235 235 234 231 228 227 223 224 223 217 216 211 210 213
313 309 309 310 312 313 313 312 311 310 308 306 303 286 293 282 304 291 283 274 273 269 269 264 259 250 250 251 248 240 234 234 232 231 228 221 219 218 215 214 210 209 210
313 312 312 312 313 310 309 309 308 307 306 304 298 290 281 280 289 297 285 279 274 261 260 248 244 249 248 253 247 244 236 233 234 233 239 208 209 214 218 211 210 207 208
314 313 313 312 311 309 308 306 305 302 301 300 297 293 282 277 273 267 281 283 276 272 261 261 250 238 241 246 246 242 238 235 234 236 237 236 213 212 212 213 207 206 208
315 314 312 311 309 307 306 304 301 299 298 297 292 291 285 272 273 267 268 271 269 266 267 268 264 253 247 240 239 239 236 239 236 232 233 234 233 213 205 208 203 202 206
315 317 316 312 310 309 305 304 302 300 299 296 294 292 291 281 279 270 264 268 272 271 262 258 262 262 255 241 250 239 237 236 237 231 228 230 225 202 205 210 206 201 201
317 318 316 315 313 310 307 303 301 300 300 298 295 288 276 277 264 257 261 266 265 275 256 261 266 269 260 252 240 241 237 232 237 232 228 230 232 212 198 200 195 195 195
318 318 318 315 313 310 308 306 303 301 300 298 292 287 281 286 279 272 257 249 264 268 260 255 266 266 267 266 244 253 237 232 232 232 226 226 224 210 194 200 194 185 195
317 316 317 314 312 310 309 307 305 303 300 297 287 280 278 281 270 262 265 262 256 263 269 254 256 265 269 257 242 252 240 234 234 232 226 225 218 200 191 189 180 186 188
315 315 312 311 311 311 311 307 304 303 299 294 287 280 278 276 271 278 267 250 255 255 258 261 262 265 269 270 246 247 242 230 234 231 223 213 198 188 195 189 180 183 188
313 312 312 311 311 311 311 308 307 304 297 293 286 281 277 276 273 274 265 265 264 253 271 259 255 264 267 271 264 258 260 231 229 224 215 214 204 207 193 189 182 184 193
313 314 312 312 313 313 311 310 307 302 298 290 286 281 279 276 276 274 275 258 259 253 269 247 259 266 267 264 265 259 262 261 218 226 214 209 199 193 193 179 182 185 189
317 317 315 314 316 315 313 312 306 303 303 296 291 285 281 277 279 278 272 261 254 262 276 237 255 265 272 260 271 267 262 228 199 204 193 189 177 175 172 176 179 183 189
321 319 318 317 320 319 316 314 305 300 295 290 286 284 282 283 278 273 272 268 260 259 268 252 255 261 267 269 264 262 249 240 176 172 167 171 176 176 177 176 183 187 188
323 321 320 320 321 320 322 310 304 299 294 289 288 287 286 285 281 271 266 262 257 258 256 267 249 257 262 265 264 263 253 251 171 181 167 170 172 173 177 181 187 188 189
323 321 321 324 324 329 328 314 308 300 298 296 292 289 286 283 279 277 274 262 253 254 246 246 256 260 262 264 259 264 255 268 182 177 175 171 174 173 180 185 187 189 190
323 323 324 328 330 333 332 318 315 307 303 296 291 287 290 291 291 276 273 265 254 249 239 240 241 254 261 265 263 269 255 257 171 172 171 162 173 176 179 184 188 191 193
324 324 329 334 335 339 334 322 319 314 312 308 304 293 285 285 285 276 266 264 261 239 238 246 249 252 258 268 264 271 254 200 163 168 168 163 170 172 179 189 189 193 198
327 331 332 341 345 341 332 323 326 316 309 310 304 294 288 284 285 280 262 258 258 248 242 244 244 251 257 264 262 266 265 245 163 163 170 165 167 171 182 189 194 200 200